Reflectivity
-20 -20 -20 -20 -20 -20 -20 -20 -20 -20 -20 -20 -20 -20 -20 -20 -20 -20 -20 -20 -20 -20 -20 -20 -20 -20 -20 -20 -20 -20 -20 -20 -20 -20 -20 -20 -20 -20 -20 -20 -20 -20 -20 -20
-20 -20 -20 -20 -20 -20 -20 -20 -20 -20 -20 -20 -20 -20 -20 -20 -20 -20 -20 -20 -20 -20 -20 -20 -20 -20 -20 -20 -20 -20 -20 -20 -20 -20 -20 -20 -20 -20 -20 -20 -20 -20 -20 -20
-20 -20 -20 -20 -20 -20 -20 -20 -20 -20 -20 -20 -20 -20 -20 -20 -20 -20 -20 -20 -20 -20 -20 -20 -20 -20 -20 -20 -20 -20 -20 -20 -20 -20 -20 -20 -20 -20 -20 -20 -20 -20 -20 -20
-20 -20 -20 -20 -20 -20 -20 -20 -20 -20 -20 -20 -20 -20 -20 -20 -20 -20 -20 -20 -20 -20 -20 -20 -20 -20 -20 -20 -20 -20 -20 -20 -20 -20 -20 -20 -20 -20 -20 -20 -20 -20 -20 -20
-20 -20 -20 -20 -20 -20 -20 -20 -20 -20 -20 -20 -20 -20 -20 -20 -20 -20 -20 -20 -20 -20 -20 -20 -20 -20 -20 -20 -20 -20 -20 -20 -20 -20 -20 -20 -20 -20 -20 -20 -20 -20 -20 -20
-20 -20 -20 -20 -20 -20 -20 -20 -20 -20 -20 -20 -20 -20 -20 -20 -20 -20 -20 -20 -20 -20 -20 -20 -20 -20 -20 -20 -20 -20 -20 -20 -20 -20 -20 -20 -20 -20 -20 -20 -20 -20 -20 -20
-20 -20 -20 -20 -20 -20 -20 -20 -20 -20 -20 -20 -20 -20 -20 -20 -20 -20 -20 -20 -20 -20 -20 -20 -20 -20 -20 -20 -20 -20 -20 -20 -20 -20 -20 -20 -20 -20 -20 -20 -20 -20 -20 -20
-20 -20 -20 -20 -20 -20 -20 -20 -20 -20 -20 -20 -20 -20 -20 -20 -20 -20 -20 -20 -20 -20 -20 -20 -20 -20 -20 -20 -20 -20 -20 -20 -20 -20 -20 -20 -20 -20 -20 -20 -20 -20 -20 -20
-20 -20 -20 -20 -20 -20 -20 -20 -20 -20 -20 -20 -20 -20 -20 -20 -20 -20 -20 -20 -20 -20 -20 -20 -20 -20 -20 -20 -20 -20 -20 -20 -20 -20 -20 -20 -20 -20 -20 -20 -20 -20 -20 -20
-20 -20 -20 -20 -20 -20 -20 -20 -20 -1 -13 -20 -20 -20 -20 -9 -20 -20 -20 -20 -20 -20 -20 -20 -20 -20 -20 -20 -20 -20 -20 -20 -20 -20 -20 -20 -20 -17 -20 -20 -20 -20 -20 -20
-20 -20 -20 -20 -20 -20 -20 -20 -20 -8 5 -2 -20 -20 -5 -18 -12 -17 -20 -20 -20 -20 -20 -20 -20 -20 -20 -20 -20 -20 -20 -20 -20 -20 -20 -20 -20 -19 -15 -20 -20 -20 -20 -20
-20 -20 -20 -20 -20 -20 -20 -20 -20 -18 -18 14 3 -20 -20 13 17 18 -20 -20 -20 -20 -20 -20 -20 -20 -20 -20 -20 -20 -20 -20 -20 -20 -20 -16 4 -18 -18 -20 -20 -20 -20 -20
-20 -20 -20 -20 -20 -18 -10 21 26 28 34 18 5 17 5 30 36 14 -20 6 6 -20 -20 -20 -20 -20 -20 -20 -19 -20 -20 -20 -19 -4 7 4 4 9 10 13 15 0 -17 -18
-17 -20 -20 -20 -20 -4 7 16 8 25 20 5 14 -19 -20 13 1 -20 -1 3 -20 -20 -20 -20 -20 -20 -20 -20 -20 -20 -13 15 12 -2 -4 -7 -0 6 7 3 4 -2 -6 3
-18 -20 -20 -20 -20 -20 -20 -17 -20 9 3 -1 -9 -20 -20 27 -9 -20 -20 -20 -20 -20 -20 -20 -20 -20 -20 -20 -19 -16 -4 -0 0 -7 -16 0 -6 3 -13 -20 -20 -19 3 9
10 0 -20 -20 -17 -20 -20 -13 -9 -20 -20 -20 -12 -7 0 2 -20 -20 -20 -15 -7 -17 -20 -20 -20 -20 -20 -20 -12 -4 2 10 9 6 2 -2 -20 -20 -20 -20 -20 -20 -20 -20
20 25 15 15 -1 11 -11 -20 -20 -20 -20 -20 -20 -17 -19 2 -13 -20 -8 6 -6 -17 -6 -20 -20 -20 -20 -18 -5 -19 -20 -19 -10 4 1 -17 -20 -20 -20 -1 4 -20 -20 -20
-9 3 14 7 -5 -19 -20 -20 -20 -20 -20 -9 5 3 15 7 0 -5 -1 8 7 -11 -20 -20 -20 -20 -12 -14 -19 -15 -14 -16 -15 -20 -20 -20 -20 -20 -20 -13 0 1 -12 -20
-16 -0 19 1 -6 -16 -20 -20 -15 -1 6 5 16 -2 -18 13 11 -12 -10 -18 -1 1 -5 -7 -4 -7 -20 -20 -20 -20 -20 -20 -20 -20 -20 -20 -20 -20 -20 -20 -20 -20 -20 -20
-20 -17 17 14 14 -9 -20 -20 -16 12 20 1 -18 -17 -9 -20 11 8 -20 -4 -20 -3 -20 -20 -20 -20 -20 -20 -20 -20 -20 -20 -20 -20 -20 -20 -20 -20 -20 -20 -20 -20 -20 -20
-20 -20 8 9 21 24 12 8 7 22 13 10 -15 4 11 -19 0 -5 -20 -20 -20 -20 -20 -20 -20 -17 -11 -20 -20 -20 -20 -20 -20 -20 -20 -20 -20 -20 -20 -20 -20 -20 -20 -20
-20 -1 5 -2 7 13 -7 16 9 9 12 4 10 2 -17 -20 -20 -20 -20 -20 -20 -20 -20 -20 -5 -20 -20 -20 -20 -20 -20 -20 -20 -20 -20 -20 -20 -20 -20 -20 -20 -20 -20 -20
15 0 15 -12 -18 -18 -13 -16 8 11 10 -5 -19 -20 -20 -20 -20 -20 -20 -20 -20 -20 -20 -20 -19 -20 -20 -20 -20 -20 -20 -20 -20 -20 -20 -20 -20 -20 -20 -20 -20 -20 -20 -20
12 3 -19 -7 2 -2 -20 -18 1 -1 -19 -19 -18 -13 -20 -20 -20 -20 -20 -20 -20 -20 -20 -20 -20 -20 -20 -20 -20 -20 -20 -20 -20 -20 -20 -20 -20 -20 -20 -20 -20 -20 -20 -20
16 16 21 21 15 2 -19 -20 -20 -20 -20 -20 -20 -20 -20 -20 -20 -20 -20 -20 -20 -20 -20 -20 -20 -20 -20 -20 -20 -20 -20 -20 -20 -20 -20 -20 -20 -20 -20 -20 -20 -20 -20 -20
4 10 9 -4 -14 -16 -20 -20 -20 -20 -20 -20 -20 -20 -20 -20 -20 -20 -20 -20 -20 -20 -20 -20 -20 -20 -20 -20 -20 -20 -20 -20 -20 -20 -20 -20 -20 -20 -20 -20 -20 -20 -20 -0
Wind_Speed
4 1 2 5 3 4 4 6 9 6 4 4 8 16 16 9 9 9 9 8 9 10 10 10 9 8 7 5 4 4 4 3 3 2 1 2 3 3 4 4 6 6 7 8
2 4 5 3 1 3 6 9 8 1 3 5 7 21 14 2 4 10 11 9 7 8 9 11 9 8 8 7 6 6 5 3 3 1 2 1 3 3 4 3 5 6 6 6
4 2 4 1 5 7 7 7 3 4 8 9 7 9 4 1 2 4 3 7 7 9 10 11 10 9 8 8 8 7 6 5 3 1 1 1 2 1 2 3 3 4 6 6
5 3 2 4 6 2 5 5 4 7 7 4 4 7 5 6 5 6 7 5 6 7 8 11 11 9 9 8 8 7 7 6 4 2 1 0 1 2 1 2 2 3 6 6
4 4 4 4 3 3 2 2 6 4 4 6 2 1 7 4 3 3 10 11 10 8 9 10 10 10 8 8 8 7 7 5 5 3 3 3 4 3 3 2 3 3 4 6
3 2 2 2 1 2 7 6 9 6 1 2 5 5 7 2 5 3 4 7 10 10 8 8 8 8 7 8 8 7 7 5 5 4 3 5 6 4 3 3 3 3 2 4
5 4 3 0 3 2 3 4 5 3 1 7 4 1 11 2 6 4 4 5 8 9 8 7 8 7 7 8 8 7 7 6 6 5 4 5 6 6 5 3 2 3 2 2
3 6 7 7 2 1 2 1 4 6 3 7 6 7 8 6 8 6 5 4 6 6 7 8 9 8 8 8 8 8 7 7 7 6 5 4 4 3 3 3 2 2 2 1
4 5 2 1 2 1 3 4 1 4 5 5 6 6 5 8 6 5 4 4 4 5 4 7 8 7 7 7 8 7 7 5 6 6 6 5 3 4 4 3 2 2 3 2
3 7 3 3 1 3 3 3 1 0 5 7 4 6 3 5 6 5 2 6 7 7 6 6 7 6 5 4 6 8 7 7 6 6 6 6 5 5 3 3 3 3 2 1
4 5 2 5 7 7 3 3 4 1 4 4 5 5 5 6 7 6 4 4 4 7 9 8 8 8 8 8 4 5 5 5 6 5 4 5 5 5 4 3 3 1 1 3
2 4 5 8 4 5 2 2 7 4 3 3 3 8 6 9 7 7 8 12 8 11 12 11 9 8 8 7 7 6 4 4 5 5 4 5 3 4 4 2 1 1 3 4
4 5 5 5 2 3 2 2 3 3 2 10 8 8 4 9 11 11 12 12 9 12 13 12 13 12 11 10 10 9 8 7 6 4 3 4 5 5 5 5 2 2 1 3
4 5 8 15 13 2 4 7 8 12 6 8 14 23 14 12 13 15 15 12 17 16 15 13 11 9 7 6 6 6 5 3 3 5 5 3 2 2 2 3 2 1 1 3
2 8 9 12 14 15 22 21 20 15 20 14 19 16 14 11 11 13 12 14 15 14 13 11 9 7 6 7 6 6 6 7 7 4 4 6 4 2 3 3 3 3 2 3
1 5 2 11 12 18 24 21 22 23 25 22 24 21 8 9 11 13 13 12 13 12 11 10 8 7 7 6 6 6 5 4 4 5 4 4 2 4 3 2 4 4 4 4
6 4 3 16 6 8 13 15 18 14 8 6 6 7 10 11 11 10 10 11 12 10 8 6 6 5 5 6 6 5 5 5 5 5 5 3 2 3 3 2 4 4 5 5
8 5 4 11 4 12 3 14 13 17 13 14 10 11 10 9 8 9 9 8 8 8 8 5 5 6 5 5 6 6 5 5 5 4 4 4 4 4 4 4 5 5 4 5
18 11 5 6 8 11 7 8 7 4 7 12 11 12 12 12 7 10 10 7 7 6 5 6 7 6 5 5 6 7 6 5 5 5 5 4 4 4 4 5 5 5 4 4
1 14 8 3 5 7 6 8 10 6 3 10 10 11 12 11 3 3 11 9 8 7 6 6 7 6 4 4 5 6 7 5 5 4 4 5 5 5 5 5 5 4 4 5
3 2 13 12 7 3 8 14 9 4 3 7 7 6 8 4 4 6 9 8 6 7 7 7 5 6 5 5 4 5 6 6 5 5 5 5 6 6 6 6 4 4 5 7
4 5 4 4 6 7 13 6 4 1 4 4 5 6 6 5 6 6 8 8 8 7 7 7 5 5 6 6 3 6 6 6 6 6 6 6 6 6 7 6 5 6 6 6
5 2 0 2 2 4 6 11 6 5 3 3 4 4 5 6 7 9 8 7 6 6 7 6 5 6 6 7 6 6 6 6 6 6 7 7 8 9 9 8 7 7 5 5
4 4 3 4 4 5 7 7 6 4 3 5 6 2 5 6 6 6 6 7 7 5 7 5 6 7 8 6 9 7 8 7 6 7 7 7 6 9 8 7 7 7 6 6
3 6 3 4 4 6 6 6 5 5 5 4 6 4 5 5 6 6 7 8 7 8 8 7 8 9 10 9 9 8 10 7 8 8 7 8 8 8 9 9 7 7 7 7
4 3 2 2 2 2 4 5 6 4 2 3 6 6 5 4 6 5 7 6 8 8 9 10 10 11 12 11 11 10 7 7 7 8 8 7 8 6 8 8 7 15 21 23
Wind_Direction
162 289 248 59 38 345 315 291 284 291 94 326 251 272 275 261 198 198 199 217 192 188 176 161 153 153 165 166 169 141 102 76 31 41 69 54 80 64 56 59 35 23 25 7
215 241 82 80 330 283 279 269 283 351 147 317 298 294 284 251 240 186 191 206 220 165 153 154 150 160 180 178 178 142 135 116 96 43 90 58 72 103 117 83 67 35 39 19
273 101 120 228 266 259 273 279 357 297 321 278 309 276 164 129 341 28 73 179 200 186 164 159 167 174 182 192 168 168 153 148 123 95 135 150 116 124 87 54 55 44 47 30
262 112 225 262 262 204 291 32 350 310 354 297 86 286 291 145 198 184 195 193 228 193 157 162 174 180 185 187 164 157 156 156 136 140 185 137 112 104 92 100 87 80 58 43
249 183 208 250 265 94 300 344 266 277 290 305 252 134 267 149 162 193 195 181 191 188 171 176 179 183 184 161 157 156 156 155 137 140 107 123 106 106 139 113 110 90 77 63
267 99 258 333 29 223 338 293 253 186 191 296 215 156 283 183 153 116 31 171 170 170 179 172 168 164 164 138 145 159 159 164 141 128 118 107 114 110 106 63 86 83 60 62
168 196 121 350 261 141 236 318 321 338 302 230 151 254 237 234 157 110 113 359 155 152 165 176 164 161 153 156 160 162 161 159 148 146 108 102 115 114 118 104 95 81 45 19
249 302 179 167 256 82 285 164 189 276 285 282 133 238 254 123 97 80 68 29 85 144 172 169 167 168 169 164 168 177 165 164 161 156 145 138 134 134 121 125 145 111 123 155
307 227 121 186 80 138 131 209 342 301 267 272 225 249 337 123 117 141 165 150 201 202 204 181 167 163 169 162 169 169 157 154 164 155 148 156 143 108 126 134 115 103 71 15
334 301 155 107 174 233 202 351 253 209 284 273 255 284 219 114 128 131 151 225 223 187 156 82 70 71 64 131 144 142 152 167 165 157 149 144 135 111 96 64 68 46 50 55
341 195 172 131 200 182 149 228 206 311 205 250 314 273 139 144 109 88 354 347 47 185 132 107 77 56 37 25 66 129 137 154 144 142 140 133 144 145 160 179 151 163 295 265
185 295 261 237 94 74 43 263 177 157 207 239 273 256 55 111 110 36 34 21 12 67 86 81 72 67 54 42 29 36 65 75 106 102 106 107 171 165 162 149 120 4 335 335
186 233 302 293 116 53 37 331 230 131 223 223 247 261 174 104 52 41 25 16 7 85 80 67 53 45 36 29 23 25 34 30 29 55 134 213 196 189 192 165 153 242 331 330
356 254 225 254 265 26 217 235 227 214 216 260 230 267 274 16 35 28 22 5 67 62 56 58 50 42 29 24 20 13 18 346 270 218 227 222 215 222 194 137 184 278 302 307
278 253 254 266 285 291 275 274 261 233 240 240 265 256 295 47 52 29 17 35 54 52 48 44 41 42 32 23 16 10 6 8 3 337 277 259 189 66 347 352 335 320 276 262
315 272 296 270 257 260 267 263 261 251 253 241 254 265 30 53 54 38 29 30 37 36 34 34 31 27 24 17 359 3 354 346 342 301 299 272 146 191 189 260 288 279 281 273
186 206 208 275 263 315 277 251 247 251 49 326 260 46 20 31 55 42 36 34 31 22 24 24 20 22 15 1 347 346 338 320 287 286 306 315 297 305 302 271 272 274 269 269
197 185 198 279 290 261 141 39 75 98 50 25 40 35 26 11 91 68 45 25 17 7 11 5 9 358 357 353 349 330 321 305 293 297 301 316 301 284 281 282 276 276 274 275
224 219 231 242 231 281 240 33 20 26 66 28 15 16 5 338 144 64 40 40 18 4 357 5 1 341 337 352 336 313 306 300 314 306 305 313 306 297 290 282 273 272 276 277
8 225 210 211 241 247 45 343 334 292 151 22 16 12 357 348 19 46 10 21 14 0 7 350 350 339 340 324 320 317 315 315 310 324 316 314 301 291 282 278 278 274 276 270
144 224 229 235 261 106 336 310 309 199 50 34 29 18 357 14 1 354 1 2 1 358 342 347 341 326 314 295 287 302 304 306 303 303 302 294 286 282 274 272 279 280 272 267
200 209 203 201 233 233 341 59 56 26 49 21 35 12 346 342 340 351 350 347 346 340 344 338 324 309 302 294 277 287 293 301 319 311 304 293 287 283 281 270 266 271 268 268
210 327 346 44 38 106 24 85 74 39 33 6 356 10 340 339 345 341 336 330 327 330 328 316 306 298 296 295 303 288 289 301 295 294 290 284 288 289 289 282 274 273 264 264
97 355 86 151 134 110 105 90 64 54 30 2 347 316 332 332 328 328 323 320 323 318 314 301 309 304 304 313 321 309 315 316 305 293 288 287 284 284 276 273 271 267 259 255
345 329 59 79 87 112 85 76 51 37 26 356 333 339 337 344 329 321 320 316 314 312 312 317 310 311 316 322 314 306 308 307 300 291 290 290 287 278 278 271 265 262 261 250
356 21 326 127 71 328 95 85 44 40 345 321 321 335 325 337 309 308 302 294 306 304 327 318 318 317 310 310 309 306 304 304 299 297 294 287 291 289 287 284 280 273 279 276